Location: Baix
(44.7118°N, 4.7648°E)
Time: 01:10:10
(UTC+00:00)

Vanguard 3 - Pass Details

Date: 27 November 2020
Orbit: 508 x 3262 km, 33.3° (Epoch: 19 January)

Event Time Altitude Azimuth Distance (km) Brightness Sun altitude
Rises 00:39:37 0° 255° (WSW) 3,143 - -62.3°
Reaches altitude 10° 00:42:01 10° 241° (WSW) 2,460 - -62.0°
Maximum altitude 00:46:45 25° 187° (S) 2,075 - -61.5°
Drops below altitude 10° 00:53:50 10° 137° (SE) 3,814 - -60.6°
Exits shadow 00:58:01 - 128° (SE) 5,141 11.3 -60.1°
Sets 00:58:39 0° 127° (SE) 5,341 11.4 -60.0°
